• In Germany
  • List of Countries
  • For 7 days
  • Water Temperature
  • Satellite Maps
  • Weather Map
  • Weather Widgets
  • user-avatar
    Login

    Hourly Weather Loubomo

    Today, 20 August, Sunday

    Time Temperature Precipitation Wind Pressure Humidity
    00:00 +20°C° 0.6 mm 0 mps 701 mmHg 98%
    01:00 +19°C° 0 mm 0 mps 701 mmHg 99%
    02:00 +20°C° 0.4 mm 0 mps 701 mmHg 99%
    03:00 +22°C° 0.4 mm 1 mps 701 mmHg 99%
    04:00 +22°C° 0.4 mm 1 mps 701 mmHg 99%
    05:00 +22°C° 0.2 mm 1 mps 701 mmHg 99%
    06:00 +22°C° 0.2 mm 1 mps 702 mmHg 98%
    07:00 +22°C° 0.2 mm 1 mps 702 mmHg 98%
    08:00 +24°C° 0.2 mm 1 mps 702 mmHg 91%
    09:00 +25°C° 0.2 mm 1 mps 703 mmHg 85%
    10:00 +26°C° 0.2 mm 1 mps 703 mmHg 78%
    11:00 +27°C° 0.4 mm 1 mps 702 mmHg 75%
    12:00 +28°C° 0.4 mm 1 mps 702 mmHg 72%
    13:00 +29°C° 0.4 mm 1 mps 701 mmHg 68%
    14:00 +29°C° 0.7 mm 1 mps 700 mmHg 71%
    15:00 +28°C° 0.7 mm 1 mps 700 mmHg 74%
    16:00 +26°C° 0.7 mm 0 mps 699 mmHg 78%
    17:00 +27°C° 0.7 mm 1 mps 699 mmHg 84%
    18:00 +25°C° 0.7 mm 1 mps 700 mmHg 90%
    19:00 +23°C° 0.7 mm 1 mps 700 mmHg 96%
    20:00 +23°C° 0.8 mm 1 mps 701 mmHg 97%
    21:00 +23°C° 0.8 mm 1 mps 701 mmHg 97%
    22:00 +22°C° 0.8 mm 1 mps 702 mmHg 98%
    23:00 +22°C° 1.6 mm 1 mps 702 mmHg 98%

    Tomorrow, 21 August, Monday

    Time Temperature Precipitation Wind Pressure Humidity
    00:00 +22°C° 1.6 mm 1 mps 702 mmHg 98%
    01:00 +22°C° 1.6 mm 1 mps 702 mmHg 98%
    02:00 +22°C° 0.4 mm 1 mps 701 mmHg 98%
    03:00 +22°C° 0.4 mm 1 mps 701 mmHg 98%
    04:00 +21°C° 0.4 mm 1 mps 701 mmHg 99%
    05:00 +21°C° 0 mm 1 mps 701 mmHg 99%
    06:00 +22°C° 0 mm 1 mps 701 mmHg 98%
    07:00 +22°C° 0 mm 1 mps 702 mmHg 98%
    08:00 +23°C° 0.1 mm 1 mps 702 mmHg 95%
    09:00 +24°C° 0.1 mm 1 mps 702 mmHg 92%
    10:00 +24°C° 0.1 mm 1 mps 703 mmHg 88%
    11:00 +25°C° 0.7 mm 1 mps 702 mmHg 88%
    12:00 +25°C° 0.7 mm 1 mps 702 mmHg 89%
    13:00 +25°C° 0.7 mm 1 mps 701 mmHg 89%
    14:00 +25°C° 0.7 mm 1 mps 700 mmHg 89%
    15:00 +25°C° 0.7 mm 1 mps 700 mmHg 90%
    16:00 +25°C° 0.7 mm 1 mps 699 mmHg 90%
    17:00 +24°C° 0.5 mm 1 mps 700 mmHg 93%
    18:00 +23°C° 0.5 mm 1 mps 700 mmHg 95%
    19:00 +23°C° 0.5 mm 1 mps 700 mmHg 98%
    20:00 +22°C° 0.4 mm 1 mps 701 mmHg 98%
    21:00 +22°C° 0.4 mm 1 mps 701 mmHg 98%
    22:00 +22°C° 0.4 mm 1 mps 702 mmHg 99%
    23:00 +22°C° 0.5 mm 1 mps 702 mmHg 99%

    Day after tomorrow, 22 August, Tuesday

    Time Temperature Precipitation Wind Pressure Humidity
    00:00 +22°C° 0.5 mm 1 mps 702 mmHg 99%
    01:00 +22°C° 0.5 mm 1 mps 701 mmHg 99%
    02:00 +21°C° 0.1 mm 1 mps 701 mmHg 99%
    03:00 +21°C° 0.1 mm 1 mps 701 mmHg 99%
    04:00 +21°C° 0.1 mm 1 mps 700 mmHg 99%
    05:00 +21°C° 0.1 mm 1 mps 701 mmHg 99%
    06:00 +21°C° 0.1 mm 1 mps 701 mmHg 98%
    07:00 +21°C° 0.1 mm 1 mps 702 mmHg 98%
    08:00 +22°C° 0.1 mm 1 mps 702 mmHg 96%
    09:00 +23°C° 0.1 mm 1 mps 702 mmHg 93%
    10:00 +24°C° 0.1 mm 1 mps 703 mmHg 91%
    11:00 +24°C° 0.2 mm 1 mps 702 mmHg 87%
    12:00 +25°C° 0.2 mm 1 mps 702 mmHg 83%
    13:00 +26°C° 0.2 mm 1 mps 701 mmHg 79%
    14:00 +26°C° 0.7 mm 1 mps 700 mmHg 83%
    15:00 +26°C° 0.7 mm 1 mps 699 mmHg 86%
    16:00 +25°C° 0.7 mm 1 mps 699 mmHg 89%
    17:00 +24°C° 0.7 mm 1 mps 699 mmHg 92%
    18:00 +23°C° 0.7 mm 1 mps 700 mmHg 95%
    19:00 +22°C° 0.7 mm 1 mps 700 mmHg 98%
    20:00 +22°C° 0.1 mm 1 mps 700 mmHg 98%
    21:00 +22°C° 0.1 mm 1 mps 701 mmHg 98%
    22:00 +21°C° 0.1 mm 1 mps 702 mmHg 99%
    23:00 +21°C° 0 mm 1 mps 701 mmHg 99%

    23 August, Wednesday

    Time Temperature Precipitation Wind Pressure Humidity
    00:00 +21°C° 0 mm 1 mps 701 mmHg 99%
    01:00 +21°C° 0 mm 1 mps 701 mmHg 99%
    02:00 +21°C° 0.1 mm 1 mps 701 mmHg 99%
    03:00 +21°C° 0.1 mm 1 mps 700 mmHg 99%
    04:00 +21°C° 0.1 mm 1 mps 700 mmHg 99%
    05:00 +21°C° 0.2 mm 1 mps 701 mmHg 99%
    06:00 +21°C° 0.2 mm 1 mps 701 mmHg 99%
    07:00 +21°C° 0.2 mm 1 mps 701 mmHg 98%
    08:00 +22°C° 0.2 mm 1 mps 702 mmHg 97%
    09:00 +22°C° 0.2 mm 1 mps 702 mmHg 95%
    10:00 +23°C° 0.2 mm 1 mps 703 mmHg 93%
    11:00 +23°C° 0.4 mm 1 mps 702 mmHg 91%
    12:00 +24°C° 0.4 mm 1 mps 701 mmHg 90%
    13:00 +24°C° 0.4 mm 1 mps 700 mmHg 88%
    14:00 +22°C° 0.5 mm 0 mps 700 mmHg 90%
    15:00 +21°C° 0.5 mm 0 mps 700 mmHg 93%
    16:00 +21°C° 0.5 mm 0 mps 699 mmHg 96%
    17:00 +21°C° 0.2 mm 0 mps 699 mmHg 96%
    18:00 +20°C° 0.2 mm 0 mps 700 mmHg 97%
    19:00 +20°C° 0.2 mm 0 mps 700 mmHg 98%
    20:00 +19°C° 0 mm 0 mps 701 mmHg 98%
    21:00 +19°C° 0 mm 0 mps 701 mmHg 97%
    22:00 +19°C° 0 mm 0 mps 701 mmHg 97%
    23:00 +19°C° 0 mm 0 mps 701 mmHg 98%

    24 August, Thursday

    Time Temperature Precipitation Wind Pressure Humidity
    00:00 +21°C° 0 mm 1 mps 701 mmHg 98%
    01:00 +21°C° 0 mm 1 mps 700 mmHg 99%
    02:00 +21°C° 0 mm 1 mps 700 mmHg 99%
    03:00 +20°C° 0 mm 1 mps 700 mmHg 99%
    04:00 +20°C° 0 mm 1 mps 700 mmHg 99%
    05:00 +21°C° 0.1 mm 1 mps 700 mmHg 99%
    06:00 +21°C° 0.1 mm 1 mps 701 mmHg 98%
    07:00 +21°C° 0.1 mm 1 mps 701 mmHg 98%
    08:00 +22°C° 0.1 mm 1 mps 702 mmHg 96%
    09:00 +23°C° 0.1 mm 1 mps 702 mmHg 93%
    10:00 +24°C° 0.1 mm 1 mps 702 mmHg 91%
    11:00 +24°C° 0.8 mm 1 mps 702 mmHg 92%
    12:00 +23°C° 0.8 mm 1 mps 701 mmHg 94%
    13:00 +21°C° 0.8 mm 0 mps 700 mmHg 96%
    14:00 +23°C° 0.7 mm 1 mps 700 mmHg 95%
    15:00 +23°C° 0.7 mm 1 mps 699 mmHg 94%
    16:00 +23°C° 0.7 mm 1 mps 699 mmHg 93%
    17:00 +23°C° 0.4 mm 1 mps 699 mmHg 95%
    18:00 +22°C° 0.4 mm 1 mps 700 mmHg 97%
    19:00 +22°C° 0.4 mm 1 mps 700 mmHg 98%
    20:00 +21°C° 0.2 mm 1 mps 700 mmHg 98%
    21:00 +21°C° 0.2 mm 1 mps 701 mmHg 98%
    22:00 +21°C° 0.2 mm 1 mps 701 mmHg 99%
    23:00 +21°C° 0.4 mm 1 mps 701 mmHg 99%

    25 August, Friday

    Time Temperature Precipitation Wind Pressure Humidity
    00:00 +21°C° 0.4 mm 1 mps 701 mmHg 99%
    01:00 +21°C° 0.4 mm 1 mps 700 mmHg 99%
    02:00 +21°C° 0.1 mm 1 mps 700 mmHg 99%
    03:00 +21°C° 0.1 mm 1 mps 700 mmHg 99%
    04:00 +21°C° 0.1 mm 1 mps 700 mmHg 99%
    05:00 +21°C° 0.1 mm 1 mps 701 mmHg 99%
    06:00 +21°C° 0.1 mm 1 mps 701 mmHg 99%
    07:00 +21°C° 0.1 mm 1 mps 701 mmHg 99%
    08:00 +22°C° 0.1 mm 1 mps 702 mmHg 96%
    09:00 +23°C° 0.1 mm 1 mps 702 mmHg 94%
    10:00 +23°C° 0.1 mm 1 mps 702 mmHg 92%
    11:00 +24°C° 0.6 mm 1 mps 702 mmHg 91%
    12:00 +24°C° 0.6 mm 1 mps 701 mmHg 91%
    13:00 +25°C° 0.6 mm 1 mps 700 mmHg 91%
    14:00 +25°C° 0.8 mm 1 mps 700 mmHg 92%
    15:00 +25°C° 0.8 mm 1 mps 699 mmHg 93%
    16:00 +24°C° 0.8 mm 1 mps 699 mmHg 94%
    17:00 +24°C° 0.9 mm 1 mps 699 mmHg 95%
    18:00 +23°C° 0.9 mm 1 mps 700 mmHg 97%
    19:00 +22°C° 0.9 mm 1 mps 700 mmHg 98%
    20:00 +22°C° 0.8 mm 1 mps 700 mmHg 98%
    21:00 +22°C° 0.8 mm 1 mps 701 mmHg 99%
    22:00 +22°C° 0.8 mm 1 mps 701 mmHg 99%
    23:00 +21°C° 0.4 mm 1 mps 701 mmHg 99%
    Show more